Time,TemperatureF,DewpointF,PressureIn,WindDirection,WindDirectionDegrees,WindSpeedMPH,WindSpeedGustMPH,Humidity,HourlyPrecipIn,Conditions,Clouds,dailyrainin,SoftwareType,DateUTC
2013-05-02 00:02:00,41.0,35.0,-100.00,NNE,20,26.0,35.0,78,0.00,,,-99.99,,2013-05-02 05:02:00,
2013-05-02 00:12:00,41.0,35.0,-100.00,NNE,15,22.0,37.0,78,0.00,,,-99.99,,2013-05-02 05:12:00,
2013-05-02 00:22:00,41.0,35.0,-100.00,NNE,15,21.0,33.0,78,0.00,,,-99.99,,2013-05-02 05:22:00,
2013-05-02 00:32:00,41.0,35.0,-100.00,NNE,15,21.0,39.0,78,0.00,,,-99.99,,2013-05-02 05:32:00,
2013-05-02 00:42:00,41.0,35.0,-100.00,NNE,15,21.0,39.0,78,0.00,,,-99.99,,2013-05-02 05:42:00,
2013-05-02 00:51:00,42.0,35.0,-100.00,NNE,20,25.0,32.0,76,0.00,,,-99.99,,2013-05-02 05:51:00,
2013-05-02 01:01:00,42.0,35.0,-100.00,NNE,20,25.0,32.0,76,0.00,,,-99.99,,2013-05-02 06:01:00,
2013-05-02 01:12:00,42.0,35.0,-100.00,North,5,17.0,33.0,75,0.00,,,-99.99,,2013-05-02 06:12:00,
2013-05-02 01:21:00,42.0,35.0,-100.00,NNE,20,22.0,38.0,75,0.00,,,-99.99,,2013-05-02 06:21:00,
2013-05-02 01:31:00,42.0,35.0,-100.00,North,10,24.0,38.0,75,0.00,,,-99.99,,2013-05-02 06:31:00,
2013-05-02 01:42:00,42.0,35.0,-100.00,North,10,24.0,38.0,75,0.00,,,-99.99,,2013-05-02 06:42:00,
2013-05-02 01:52:00,42.0,35.0,-100.00,NNE,15,25.0,32.0,76,0.00,,,-99.99,,2013-05-02 06:52:00,
2013-05-02 02:02:00,42.0,35.0,-100.00,NNE,15,25.0,32.0,76,0.00,,,-99.99,,2013-05-02 07:02:00,
2013-05-02 02:11:00,42.0,35.0,-100.00,NNE,20,27.0,37.0,77,0.16,,,-99.99,,2013-05-02 07:11:00,
2013-05-02 02:21:00,41.0,36.0,-100.00,North,5,20.0,32.0,80,0.48,,,-99.99,,2013-05-02 07:21:00,
2013-05-02 02:32:00,40.0,36.0,-100.00,North,5,16.0,29.0,88,1.01,,,-99.99,,2013-05-02 07:32:00,
2013-05-02 02:41:00,40.0,36.0,-100.00,North,5,16.0,29.0,88,1.01,,,-99.99,,2013-05-02 07:41:00,
2013-05-02 02:52:00,39.0,37.0,-100.00,North,10,24.0,35.0,90,1.28,,,-99.99,,2013-05-02 07:52:00,
2013-05-02 03:02:00,39.0,37.0,-100.00,North,10,24.0,35.0,90,1.28,,,-99.99,,2013-05-02 08:02:00,
2013-05-02 03:11:00,39.0,37.0,-100.00,NNE,15,21.0,35.0,91,0.20,,,-99.99,,2013-05-02 08:11:00,
2013-05-02 03:22:00,39.0,37.0,-100.00,NNE,25,21.0,31.0,91,0.28,,,-99.99,,2013-05-02 08:22:00,
2013-05-02 03:32:00,40.0,37.0,-100.00,NNE,15,22.0,36.0,90,0.20,,,-99.99,,2013-05-02 08:32:00,
2013-05-02 03:42:00,40.0,37.0,-100.00,NNE,15,22.0,36.0,90,0.20,,,-99.99,,2013-05-02 08:42:00,
2013-05-02 03:52:00,39.0,37.0,-100.00,NNE,15,26.0,39.0,90,0.20,,,-99.99,,2013-05-02 08:52:00,
2013-05-02 04:02:00,39.0,37.0,-100.00,NNE,15,26.0,39.0,90,0.20,,,-99.99,,2013-05-02 09:02:00,
2013-05-02 04:11:00,39.0,37.0,-100.00,North,5,21.0,29.0,90,0.27,,,-99.99,,2013-05-02 09:11:00,
2013-05-02 04:21:00,39.0,37.0,-100.00,NNE,15,21.0,27.0,90,0.27,,,-99.99,,2013-05-02 09:21:00,
2013-05-02 04:32:00,39.0,36.0,-100.00,North,5,17.0,24.0,90,0.74,,,-99.99,,2013-05-02 09:32:00,
2013-05-02 04:42:00,39.0,36.0,-100.00,North,5,17.0,24.0,90,0.74,,,-99.99,,2013-05-02 09:42:00,
2013-05-02 04:52:00,38.0,36.0,-100.00,NNE,15,22.0,32.0,90,0.78,,,-99.99,,2013-05-02 09:52:00,
2013-05-02 05:02:00,38.0,36.0,-100.00,NNE,15,22.0,32.0,90,0.78,,,-99.99,,2013-05-02 10:02:00,
2013-05-02 05:12:00,38.0,36.0,-100.00,North,0,14.0,26.0,90,0.64,,,-99.99,,2013-05-02 10:12:00,
2013-05-02 05:22:00,38.0,36.0,-100.00,NNE,15,19.0,26.0,91,1.03,,,-99.99,,2013-05-02 10:22:00,
2013-05-02 05:33:00,38.0,35.0,-100.00,North,5,20.0,24.0,91,1.13,,,-99.99,,2013-05-02 10:33:00,
2013-05-02 05:42:00,38.0,35.0,-100.00,North,5,20.0,24.0,91,1.13,,,-99.99,,2013-05-02 10:42:00,
2013-05-02 05:52:00,37.0,35.0,-100.00,North,10,23.0,30.0,92,1.64,,,-99.99,,2013-05-02 10:52:00,
2013-05-02 06:02:00,37.0,35.0,-100.00,North,10,23.0,30.0,92,1.64,,,-99.99,,2013-05-02 11:02:00,
2013-05-02 06:12:00,37.0,35.0,-100.00,NNE,20,21.0,27.0,92,1.03,,,-99.99,,2013-05-02 11:12:00,
2013-05-02 06:22:00,37.0,35.0,-100.00,NNE,15,16.0,29.0,92,0.89,,,-99.99,,2013-05-02 11:22:00,
2013-05-02 06:32:00,37.0,35.0,-100.00,North,10,21.0,27.0,92,1.84,,,-99.99,,2013-05-02 11:32:00,
2013-05-02 06:42:00,37.0,35.0,-100.00,North,10,21.0,27.0,92,1.84,,,-99.99,,2013-05-02 11:42:00,
2013-05-02 06:52:00,37.0,35.0,-100.00,North,0,11.0,19.0,92,1.01,,,-99.99,,2013-05-02 11:52:00,
2013-05-02 07:01:00,37.0,35.0,-100.00,North,0,11.0,19.0,92,1.01,,,-99.99,,2013-05-02 12:01:00,
2013-05-02 07:11:00,36.0,34.0,-100.00,North,5,17.0,22.0,92,1.40,,,-99.99,,2013-05-02 12:11:00,
2013-05-02 07:21:00,36.0,34.0,-100.00,North,0,14.0,21.0,92,1.32,,,-99.99,,2013-05-02 12:21:00,
2013-05-02 07:32:00,36.0,34.0,-100.00,North,5,19.0,29.0,92,1.28,,,-99.99,,2013-05-02 12:32:00,
2013-05-02 07:42:00,36.0,34.0,-100.00,North,5,19.0,29.0,92,1.28,,,-99.99,,2013-05-02 12:42:00,
2013-05-02 07:52:00,36.0,34.0,-100.00,North,0,23.0,32.0,92,1.29,,,-99.99,,2013-05-02 12:52:00,
2013-05-02 08:01:00,36.0,34.0,-100.00,North,0,23.0,32.0,92,1.29,,,-99.99,,2013-05-02 13:01:00,
2013-05-02 08:11:00,36.0,34.0,-100.00,North,0,21.0,28.0,92,1.30,,,-99.99,,2013-05-02 13:11:00,
2013-05-02 08:21:00,36.0,34.0,-100.00,North,0,22.0,32.0,92,0.89,,,-99.99,,2013-05-02 13:21:00,
2013-05-02 08:32:00,36.0,34.0,-100.00,North,5,18.0,30.0,92,0.38,,,-99.99,,2013-05-02 13:32:00,
2013-05-02 08:42:00,36.0,34.0,-100.00,North,5,18.0,30.0,92,0.38,,,-99.99,,2013-05-02 13:42:00,
2013-05-02 08:52:00,36.0,34.0,-100.00,North,5,22.0,32.0,91,0.65,,,-99.99,,2013-05-02 13:52:00,
2013-05-02 09:02:00,36.0,34.0,-100.00,North,5,22.0,32.0,91,0.65,,,-99.99,,2013-05-02 14:02:00,
2013-05-02 09:11:00,36.0,34.0,-100.00,North,10,20.0,28.0,91,0.41,,,-99.99,,2013-05-02 14:11:00,
2013-05-02 09:22:00,36.0,34.0,-100.00,North,10,23.0,38.0,91,0.48,,,-99.99,,2013-05-02 14:22:00,
2013-05-02 09:32:00,36.0,34.0,-100.00,North,5,22.0,35.0,90,0.79,,,-99.99,,2013-05-02 14:32:00,
2013-05-02 09:42:00,36.0,34.0,-100.00,North,5,22.0,35.0,90,0.79,,,-99.99,,2013-05-02 14:42:00,
2013-05-02 09:52:00,36.0,33.0,-100.00,North,0,22.0,35.0,90,0.79,,,-99.99,,2013-05-02 14:52:00,
2013-05-02 10:02:00,36.0,33.0,-100.00,North,0,22.0,35.0,90,0.79,,,-99.99,,2013-05-02 15:02:00,
2013-05-02 10:12:00,36.0,33.0,-100.00,North,0,20.0,32.0,90,0.69,,,-99.99,,2013-05-02 15:12:00,
2013-05-02 10:22:00,36.0,33.0,-100.00,North,0,22.0,32.0,90,0.96,,,-99.99,,2013-05-02 15:22:00,
2013-05-02 10:33:00,36.0,33.0,-100.00,North,0,21.0,28.0,90,0.33,,,-99.99,,2013-05-02 15:33:00,
2013-05-02 10:43:00,36.0,33.0,-100.00,North,0,21.0,28.0,90,0.33,,,-99.99,,2013-05-02 15:43:00,
2013-05-02 11:02:00,36.0,33.0,-100.00,North,5,16.0,29.0,90,0.51,,,-99.99,,2013-05-02 16:02:00,
2013-05-02 11:13:00,35.0,33.0,-100.00,North,5,23.0,33.0,90,0.43,,,-99.99,,2013-05-02 16:13:00,
2013-05-02 11:22:00,35.0,33.0,-100.00,North,0,17.0,32.0,90,0.72,,,-99.99,,2013-05-02 16:22:00,
2013-05-02 11:32:00,35.0,33.0,-100.00,North,0,21.0,30.0,90,0.35,,,-99.99,,2013-05-02 16:32:00,
2013-05-02 11:43:00,35.0,33.0,-100.00,North,0,21.0,30.0,90,0.35,,,-99.99,,2013-05-02 16:43:00,
2013-05-02 11:52:00,36.0,33.0,-100.00,North,0,18.0,31.0,90,0.62,,,-99.99,,2013-05-02 16:52:00,
2013-05-02 12:02:00,36.0,33.0,-100.00,North,0,18.0,31.0,90,0.62,,,-99.99,,2013-05-02 17:02:00,
2013-05-02 12:12:00,36.0,34.0,-100.00,North,5,19.0,32.0,90,0.25,,,-99.99,,2013-05-02 17:12:00,
2013-05-02 12:22:00,36.0,34.0,-100.00,North,0,17.0,27.0,90,0.25,,,-99.99,,2013-05-02 17:22:00,
2013-05-02 12:32:00,36.0,33.0,-100.00,North,0,18.0,24.0,90,0.25,,,-99.99,,2013-05-02 17:32:00,
2013-05-02 12:42:00,36.0,33.0,-100.00,North,0,18.0,24.0,90,0.25,,,-99.99,,2013-05-02 17:42:00,
2013-05-02 12:51:00,36.0,33.0,-100.00,North,0,19.0,29.0,90,0.24,,,-99.99,,2013-05-02 17:51:00,
2013-05-02 13:01:00,36.0,33.0,-100.00,North,0,19.0,29.0,90,0.24,,,-99.99,,2013-05-02 18:01:00,
2013-05-02 13:11:00,36.0,33.0,-100.00,North,5,17.0,30.0,90,0.24,,,-99.99,,2013-05-02 18:11:00,
2013-05-02 13:21:00,36.0,33.0,-100.00,North,0,15.0,27.0,90,0.62,,,-99.99,,2013-05-02 18:21:00,
2013-05-02 13:32:00,35.0,33.0,-100.00,North,0,16.0,30.0,90,0.50,,,-99.99,,2013-05-02 18:32:00,
2013-05-02 13:41:00,35.0,33.0,-100.00,North,0,16.0,30.0,90,0.50,,,-99.99,,2013-05-02 18:41:00,
2013-05-02 13:52:00,35.0,33.0,-100.00,North,0,19.0,30.0,90,0.65,,,-99.99,,2013-05-02 18:52:00,
2013-05-02 14:01:00,35.0,33.0,-100.00,North,0,19.0,30.0,90,0.65,,,-99.99,,2013-05-02 19:01:00,
2013-05-02 14:11:00,35.0,33.0,-100.00,North,0,19.0,27.0,90,0.71,,,-99.99,,2013-05-02 19:11:00,
2013-05-02 14:21:00,35.0,33.0,-100.00,North,0,17.0,28.0,90,0.64,,,-99.99,,2013-05-02 19:21:00,
2013-05-02 14:32:00,35.0,32.0,-100.00,North,350,16.0,27.0,90,0.75,,,-99.99,,2013-05-02 19:32:00,
2013-05-02 14:42:00,35.0,32.0,-100.00,North,350,16.0,27.0,90,0.75,,,-99.99,,2013-05-02 19:42:00,
2013-05-02 14:52:00,34.0,32.0,-100.00,North,0,19.0,28.0,91,1.15,,,-99.99,,2013-05-02 19:52:00,
2013-05-02 15:02:00,34.0,32.0,-100.00,North,0,19.0,28.0,91,1.15,,,-99.99,,2013-05-02 20:02:00,
2013-05-02 15:11:00,34.0,32.0,-100.00,NNW,345,16.0,26.0,91,1.25,,,-99.99,,2013-05-02 20:11:00,
2013-05-02 15:22:00,34.0,31.0,-100.00,North,0,16.0,27.0,91,1.09,,,-99.99,,2013-05-02 20:22:00,
2013-05-02 15:32:00,34.0,31.0,-100.00,North,0,16.0,24.0,91,0.06,,,-99.99,,2013-05-02 20:32:00,
2013-05-02 15:41:00,34.0,31.0,-100.00,North,0,16.0,24.0,91,0.06,,,-99.99,,2013-05-02 20:41:00,
2013-05-02 15:52:00,33.0,31.0,-100.00,North,0,15.0,26.0,92,0.10,,,-99.99,,2013-05-02 20:52:00,
2013-05-02 16:01:00,33.0,31.0,-100.00,North,0,15.0,26.0,92,0.10,,,-99.99,,2013-05-02 21:01:00,
2013-05-02 16:11:00,33.0,31.0,-100.00,North,0,14.0,25.0,92,0.11,,,-99.99,,2013-05-02 21:11:00,
2013-05-02 16:21:00,33.0,31.0,-100.00,North,0,13.0,24.0,92,0.10,,,-99.99,,2013-05-02 21:21:00,
2013-05-02 16:33:00,33.0,31.0,-100.00,North,0,13.0,20.0,92,0.84,,,-99.99,,2013-05-02 21:33:00,
2013-05-02 16:42:00,33.0,31.0,-100.00,North,0,13.0,20.0,92,0.84,,,-99.99,,2013-05-02 21:42:00,
2013-05-02 16:53:00,33.0,31.0,-100.00,North,350,13.0,26.0,92,0.06,,,-99.99,,2013-05-02 21:53:00,
2013-05-02 17:02:00,33.0,31.0,-100.00,North,350,13.0,26.0,92,0.06,,,-99.99,,2013-05-02 22:02:00,
2013-05-02 17:12:00,33.0,31.0,-100.00,North,0,13.0,22.0,92,0.06,,,-99.99,,2013-05-02 22:12:00,
2013-05-02 17:22:00,33.0,31.0,-100.00,North,0,15.0,22.0,92,0.76,,,-99.99,,2013-05-02 22:22:00,
2013-05-02 17:32:00,33.0,31.0,-100.00,NNW,345,12.0,22.0,92,0.51,,,-99.99,,2013-05-02 22:32:00,
2013-05-02 17:42:00,33.0,31.0,-100.00,NNW,345,12.0,22.0,92,0.51,,,-99.99,,2013-05-02 22:42:00,
2013-05-02 17:52:00,33.0,31.0,-100.00,North,0,17.0,24.0,92,0.76,,,-99.99,,2013-05-02 22:52:00,
2013-05-02 18:02:00,33.0,31.0,-100.00,North,0,17.0,24.0,92,0.76,,,-99.99,,2013-05-02 23:02:00,
2013-05-02 18:11:00,33.0,31.0,-100.00,North,355,15.0,26.0,92,1.23,,,-99.99,,2013-05-02 23:11:00,
2013-05-02 18:22:00,33.0,31.0,-100.00,North,0,15.0,24.0,92,0.03,,,-99.99,,2013-05-02 23:22:00,
2013-05-02 18:32:00,33.0,31.0,-100.00,North,0,12.0,20.0,92,0.14,,,-99.99,,2013-05-02 23:32:00,
2013-05-02 18:42:00,33.0,31.0,-100.00,North,0,12.0,20.0,92,0.14,,,-99.99,,2013-05-02 23:42:00,
2013-05-02 18:51:00,33.0,31.0,-100.00,North,350,12.0,22.0,92,0.18,,,-99.99,,2013-05-02 23:51:00,
2013-05-02 19:01:00,33.0,31.0,-100.00,North,350,12.0,22.0,92,0.18,,,-99.99,,2013-05-03 00:01:00,
2013-05-02 19:11:00,33.0,31.0,-100.00,NNW,345,13.0,21.0,92,0.13,,,-99.99,,2013-05-03 00:11:00,
2013-05-02 19:21:00,33.0,31.0,-100.00,North,0,13.0,21.0,92,0.08,,,-99.99,,2013-05-03 00:21:00,
2013-05-02 19:31:00,33.0,31.0,-100.00,North,0,13.0,24.0,92,0.89,,,-99.99,,2013-05-03 00:31:00,
2013-05-02 19:41:00,33.0,31.0,-100.00,North,0,13.0,24.0,92,0.89,,,-99.99,,2013-05-03 00:41:00,
2013-05-02 19:52:00,33.0,31.0,-100.00,North,0,12.0,21.0,92,1.06,,,-99.99,,2013-05-03 00:52:00,
2013-05-02 20:01:00,33.0,31.0,-100.00,North,0,12.0,21.0,92,1.06,,,-99.99,,2013-05-03 01:01:00,
2013-05-02 20:11:00,33.0,31.0,-100.00,North,355,13.0,21.0,92,0.52,,,-99.99,,2013-05-03 01:11:00,
2013-05-02 20:21:00,33.0,31.0,-100.00,North,355,16.0,23.0,92,0.79,,,-99.99,,2013-05-03 01:21:00,
2013-05-02 20:31:00,33.0,31.0,-100.00,North,5,15.0,24.0,92,0.35,,,-99.99,,2013-05-03 01:31:00,
2013-05-02 20:42:00,33.0,31.0,-100.00,North,5,15.0,24.0,92,0.35,,,-99.99,,2013-05-03 01:42:00,
2013-05-02 20:52:00,33.0,31.0,-100.00,North,5,17.0,28.0,92,0.91,,,-99.99,,2013-05-03 01:52:00,
2013-05-02 21:01:00,33.0,31.0,-100.00,North,5,17.0,28.0,92,0.91,,,-99.99,,2013-05-03 02:01:00,
2013-05-02 21:11:00,33.0,31.0,-100.00,North,0,18.0,27.0,92,0.27,,,-99.99,,2013-05-03 02:11:00,
2013-05-02 21:21:00,33.0,32.0,-100.00,North,0,17.0,25.0,92,0.23,,,-99.99,,2013-05-03 02:21:00,
2013-05-02 21:32:00,34.0,32.0,-100.00,North,5,14.0,21.0,92,0.20,,,-99.99,,2013-05-03 02:32:00,
2013-05-02 21:42:00,34.0,32.0,-100.00,North,5,14.0,21.0,92,0.20,,,-99.99,,2013-05-03 02:42:00,
2013-05-02 21:52:00,34.0,32.0,-100.00,North,5,16.0,21.0,92,1.23,,,-99.99,,2013-05-03 02:52:00,
2013-05-02 22:01:00,34.0,32.0,-100.00,North,5,16.0,21.0,92,1.23,,,-99.99,,2013-05-03 03:01:00,
2013-05-02 22:11:00,33.0,32.0,-100.00,North,0,13.0,22.0,92,0.07,,,-99.99,,2013-05-03 03:11:00,
2013-05-02 22:21:00,33.0,32.0,-100.00,North,5,14.0,21.0,92,0.69,,,-99.99,,2013-05-03 03:21:00,
2013-05-02 22:33:00,33.0,31.0,-100.00,North,0,13.0,19.0,92,0.06,,,-99.99,,2013-05-03 03:33:00,
2013-05-02 22:42:00,33.0,31.0,-100.00,North,0,13.0,19.0,92,0.06,,,-99.99,,2013-05-03 03:42:00,
2013-05-02 22:52:00,33.0,31.0,-100.00,North,0,12.0,19.0,92,0.14,,,-99.99,,2013-05-03 03:52:00,
2013-05-02 23:03:00,33.0,31.0,-100.00,North,0,12.0,19.0,92,0.14,,,-99.99,,2013-05-03 04:03:00,
2013-05-02 23:12:00,33.0,31.0,-100.00,NNW,345,9.0,16.0,92,0.06,,,-99.99,,2013-05-03 04:12:00,
2013-05-02 23:22:00,33.0,31.0,-100.00,North,350,9.0,15.0,92,0.11,,,-99.99,,2013-05-03 04:22:00,
2013-05-02 23:32:00,33.0,31.0,-100.00,North,0,10.0,16.0,92,0.14,,,-99.99,,2013-05-03 04:32:00,
2013-05-02 23:42:00,33.0,31.0,-100.00,North,0,10.0,16.0,92,0.14,,,-99.99,,2013-05-03 04:42:00,
2013-05-02 23:52:00,33.0,31.0,-100.00,North,5,12.0,20.0,92,0.10,,,-99.99,,2013-05-03 04:52:00,